{"data":{"norad_id":61761,"epoch":"2026-05-25T04:25:17.148864Z","epoch_age_seconds":52399,"freshness":"FRESH","line1":"1 61761U 24199AC  26145.18422626  .00039023  00000+0  58029-3 0  9998","line2":"2 61761  97.2960  21.2170 0005432  20.5731 339.5741 15.55047274134034","mean_motion":15.55047274,"eccentricity":0.0005432,"inclination_deg":97.296,"raan_deg":21.217,"arg_perigee_deg":20.5731,"mean_anomaly_deg":339.5741,"bstar":0.00058029,"rev_number":13403,"period_min":92.601686397349,"perigee_km":398.33223448565,"apogee_km":405.69819185004,"semimajor_km":6780.1522131678,"source":"CELESTRAK","updated_at":"2026-05-25T13:38:02.556975Z"}}